Hourly Weather Lug

Today, 16 June, Wednesday

Time Temperature Precipitation Wind Pressure Humidity
00:00 +9°C° 0 mm 2 mps 753 mmHg 82%
01:00 +9°C° 0 mm 2 mps 754 mmHg 88%
02:00 +8°C° 0 mm 2 mps 754 mmHg 93%
03:00 +9°C° 0 mm 2 mps 754 mmHg 90%
04:00 +9°C° 0 mm 2 mps 754 mmHg 87%
05:00 +10°C° 0 mm 2 mps 755 mmHg 84%
06:00 +12°C° 0 mm 2 mps 755 mmHg 75%
07:00 +14°C° 0 mm 2 mps 755 mmHg 66%
08:00 +16°C° 0 mm 1 mps 756 mmHg 56%
09:00 +19°C° 0 mm 1 mps 756 mmHg 51%
10:00 +20°C° 0 mm 1 mps 756 mmHg 45%
11:00 +22°C° 0 mm 1 mps 756 mmHg 40%
12:00 +22°C° 0 mm 1 mps 756 mmHg 39%
13:00 +23°C° 0 mm 1 mps 756 mmHg 38%
14:00 +23°C° 0 mm 1 mps 756 mmHg 37%
15:00 +23°C° 0 mm 1 mps 756 mmHg 38%
16:00 +23°C° 0 mm 1 mps 756 mmHg 39%
17:00 +23°C° 0 mm 1 mps 756 mmHg 41%
18:00 +21°C° 0 mm 1 mps 756 mmHg 50%
19:00 +20°C° 0 mm 1 mps 757 mmHg 59%
20:00 +18°C° 0 mm 1 mps 757 mmHg 68%
21:00 +16°C° 0 mm 1 mps 757 mmHg 70%
22:00 +14°C° 0 mm 1 mps 757 mmHg 72%
23:00 +13°C° 0 mm 1 mps 758 mmHg 74%

Tomorrow, 17 June, Thursday

Time Temperature Precipitation Wind Pressure Humidity
00:00 +13°C° 0 mm 1 mps 758 mmHg 76%
01:00 +12°C° 0 mm 1 mps 758 mmHg 78%
02:00 +12°C° 0 mm 1 mps 759 mmHg 80%
03:00 +12°C° 0 mm 1 mps 759 mmHg 79%
04:00 +13°C° 0 mm 1 mps 759 mmHg 79%
05:00 +13°C° 0 mm 1 mps 759 mmHg 78%
06:00 +15°C° 0 mm 1 mps 760 mmHg 71%
07:00 +18°C° 0 mm 1 mps 760 mmHg 64%
08:00 +20°C° 0 mm 1 mps 760 mmHg 57%
09:00 +22°C° 0 mm 1 mps 760 mmHg 53%
10:00 +23°C° 0 mm 1 mps 760 mmHg 48%
11:00 +25°C° 0 mm 1 mps 760 mmHg 44%
12:00 +25°C° 0 mm 1 mps 760 mmHg 42%
13:00 +26°C° 0 mm 2 mps 760 mmHg 40%
14:00 +26°C° 0 mm 2 mps 760 mmHg 39%
15:00 +26°C° 0 mm 2 mps 760 mmHg 41%
16:00 +26°C° 0 mm 2 mps 760 mmHg 42%
17:00 +26°C° 0 mm 2 mps 760 mmHg 44%
18:00 +24°C° 0 mm 2 mps 760 mmHg 52%
19:00 +22°C° 0 mm 1 mps 760 mmHg 60%
20:00 +21°C° 0 mm 1 mps 760 mmHg 68%
21:00 +20°C° 0 mm 1 mps 760 mmHg 68%
22:00 +17°C° 0 mm 2 mps 760 mmHg 69%
23:00 +16°C° 0 mm 2 mps 761 mmHg 69%

Day after tomorrow, 18 June, Friday

Time Temperature Precipitation Wind Pressure Humidity
00:00 +16°C° 0 mm 2 mps 761 mmHg 72%
01:00 +15°C° 0 mm 2 mps 761 mmHg 75%
02:00 +14°C° 0 mm 2 mps 761 mmHg 78%
03:00 +15°C° 0 mm 2 mps 761 mmHg 79%
04:00 +15°C° 0 mm 2 mps 761 mmHg 80%
05:00 +15°C° 0 mm 2 mps 761 mmHg 82%
06:00 +17°C° 0 mm 2 mps 761 mmHg 74%
07:00 +20°C° 0 mm 2 mps 761 mmHg 67%
08:00 +22°C° 0 mm 3 mps 761 mmHg 60%
09:00 +24°C° 0 mm 3 mps 761 mmHg 55%
10:00 +26°C° 0 mm 3 mps 760 mmHg 51%
11:00 +27°C° 0 mm 3 mps 760 mmHg 46%
12:00 +28°C° 0 mm 3 mps 760 mmHg 45%
13:00 +28°C° 0 mm 4 mps 760 mmHg 43%
14:00 +29°C° 0 mm 4 mps 759 mmHg 42%
15:00 +29°C° 0 mm 4 mps 759 mmHg 44%
16:00 +29°C° 0 mm 3 mps 759 mmHg 46%
17:00 +28°C° 0 mm 3 mps 759 mmHg 47%
18:00 +26°C° 0 mm 3 mps 759 mmHg 56%
19:00 +25°C° 0 mm 3 mps 759 mmHg 64%
20:00 +23°C° 0 mm 2 mps 759 mmHg 72%
21:00 +20°C° 0 mm 2 mps 759 mmHg 76%
22:00 +19°C° 0 mm 2 mps 759 mmHg 79%
23:00 +18°C° 0 mm 2 mps 759 mmHg 82%

19 June, Saturday

Time Temperature Precipitation Wind Pressure Humidity
00:00 +17°C° 0 mm 2 mps 759 mmHg 85%
01:00 +17°C° 0 mm 2 mps 759 mmHg 88%
02:00 +16°C° 0 mm 2 mps 759 mmHg 90%
03:00 +17°C° 0 mm 2 mps 759 mmHg 89%
04:00 +17°C° 0 mm 2 mps 759 mmHg 89%
05:00 +17°C° 0 mm 2 mps 759 mmHg 88%
06:00 +19°C° 0 mm 2 mps 759 mmHg 79%
07:00 +21°C° 0 mm 3 mps 759 mmHg 71%
08:00 +24°C° 0 mm 3 mps 759 mmHg 62%
09:00 +25°C° 0 mm 3 mps 759 mmHg 57%
10:00 +27°C° 0 mm 3 mps 759 mmHg 51%
11:00 +28°C° 0 mm 4 mps 759 mmHg 46%
12:00 +28°C° 0 mm 4 mps 759 mmHg 44%
13:00 +29°C° 0 mm 4 mps 758 mmHg 42%
14:00 +30°C° 0 mm 4 mps 758 mmHg 40%
15:00 +29°C° 0 mm 3 mps 758 mmHg 42%
16:00 +29°C° 0 mm 3 mps 757 mmHg 44%
17:00 +29°C° 0 mm 3 mps 757 mmHg 46%
18:00 +27°C° 0 mm 3 mps 757 mmHg 55%
19:00 +26°C° 0 mm 3 mps 757 mmHg 64%
20:00 +24°C° 0 mm 2 mps 757 mmHg 72%
21:00 +23°C° 0 mm 2 mps 757 mmHg 76%
22:00 +20°C° 0 mm 2 mps 757 mmHg 79%
23:00 +19°C° 0 mm 2 mps 757 mmHg 82%

20 June, Sunday

Time Temperature Precipitation Wind Pressure Humidity
00:00 +18°C° 0 mm 2 mps 757 mmHg 85%
01:00 +18°C° 0 mm 2 mps 757 mmHg 89%
02:00 +17°C° 0 mm 2 mps 757 mmHg 92%
03:00 +18°C° 0 mm 2 mps 757 mmHg 91%
04:00 +18°C° 0 mm 2 mps 757 mmHg 90%
05:00 +18°C° 0 mm 2 mps 757 mmHg 89%
06:00 +20°C° 0 mm 2 mps 757 mmHg 81%
07:00 +22°C° 0 mm 3 mps 757 mmHg 73%
08:00 +25°C° 0 mm 3 mps 757 mmHg 66%
09:00 +26°C° 0 mm 3 mps 756 mmHg 61%
10:00 +28°C° 0 mm 4 mps 756 mmHg 55%
11:00 +29°C° 0 mm 4 mps 756 mmHg 50%
12:00 +30°C° 0 mm 4 mps 756 mmHg 47%
13:00 +30°C° 0 mm 4 mps 755 mmHg 44%
14:00 +32°C° 0 mm 4 mps 755 mmHg 41%
15:00 +30°C° 0 mm 4 mps 755 mmHg 45%
16:00 +30°C° 0 mm 4 mps 755 mmHg 49%
17:00 +29°C° 0 mm 4 mps 755 mmHg 53%
18:00 +28°C° 0 mm 3 mps 755 mmHg 60%
19:00 +26°C° 0 mm 3 mps 755 mmHg 67%
20:00 +25°C° 0 mm 3 mps 755 mmHg 74%
21:00 +24°C° 0 mm 3 mps 755 mmHg 78%
22:00 +21°C° 0 mm 2 mps 755 mmHg 82%
23:00 +20°C° 0 mm 2 mps 755 mmHg 86%

21 June, Monday

Time Temperature Precipitation Wind Pressure Humidity
00:00 +20°C° 0 mm 2 mps 755 mmHg 88%
01:00 +19°C° 0 mm 2 mps 756 mmHg 90%
02:00 +19°C° 0 mm 2 mps 756 mmHg 93%
03:00 +19°C° 0 mm 2 mps 756 mmHg 92%
04:00 +20°C° 0 mm 2 mps 756 mmHg 90%
05:00 +21°C° 0 mm 1 mps 756 mmHg 89%
06:00 +23°C° 0 mm 1 mps 756 mmHg 82%
07:00 +25°C° 0 mm 1 mps 756 mmHg 74%
08:00 +26°C° 0 mm 1 mps 756 mmHg 66%
09:00 +28°C° 0 mm 2 mps 756 mmHg 61%
10:00 +29°C° 0 mm 2 mps 756 mmHg 56%
11:00 +30°C° 0 mm 3 mps 756 mmHg 51%
12:00 +31°C° 0 mm 3 mps 756 mmHg 49%
13:00 +31°C° 0 mm 2 mps 756 mmHg 46%
14:00 +32°C° 0 mm 2 mps 755 mmHg 44%
15:00 +31°C° 0 mm 2 mps 755 mmHg 48%
16:00 +30°C° 0 mm 2 mps 755 mmHg 53%
17:00 +30°C° 0 mm 1 mps 755 mmHg 57%
18:00 +29°C° 0 mm 1 mps 755 mmHg 62%
19:00 +28°C° 0 mm 1 mps 755 mmHg 66%
20:00 +27°C° 0 mm 1 mps 755 mmHg 71%
21:00 +26°C° 0 mm 1 mps 755 mmHg 74%
22:00 +24°C° 0 mm 1 mps 755 mmHg 77%
23:00 +23°C° 0 mm 1 mps 755 mmHg 80%
Show more

We Need Your Consent

Meteoprog and our Service Providers may store and access personal data such as cookies, device identifiers or other similar technologies on your device and process such data to personalise content and ads, as well as provide social media features and to analyse the traffic.

  • Store and/or access information on your device

    Cookies, device identifiers or other information can be stored or accessed on your device for the purposes indicated above.

  • Personalised ads and content, ad and content measurement, audience insights, and products development

    Ads and content can be personalised based on a profile. More data can be added to better personalise ads and content. Ad and content performance can be measured. Insights about the audience who saw the ads and content can be derived. Such data can be used to develop or improve user’s experience, systems and software.

By clicking ‘I Agree’ you will allow the use of indicated cookies, device identifiers, web beacons or other similar technologies. Your settings can be changed in the browser on your device.

For certain purposes, legitimate interests may be relied on, rather than consent. You can read more about this in our Privacy and Cookie Policy.